Location: Newark
(55.1520°N, 2.9990°W)
Time: 03:22:14
(UTC+00:00)

Envisat - Visible Passes

Search period start: 19 September 2020 00:00
Search period end: 29 September 2020 00:00
Orbit: 764 x 766 km, 98.1° (Epoch: 18 September)

Date Brightness Start Highest point End Pass type
(mag) Time Alt. Az. Time Alt. Az. Time Alt. Az.
20 Sep 6.2 04:55:12 10° NE 04:58:10 15° E 05:01:08 10° ESE visible
21 Sep 6.3 19:00:13 10° WSW 19:02:57 14° W 19:05:42 10° NW visible
22 Sep 5.9 05:19:54 10° NE 05:23:58 24° E 05:28:01 10° SE visible
23 Sep 6.4 04:44:27 10° ENE 04:46:38 13° E 04:48:49 10° ESE visible
24 Sep 6.2 18:48:05 10° SW 18:51:26 17° W 18:54:47 10° NW visible
25 Sep 6.0 05:08:47 10° NE 05:12:28 20° E 05:16:08 10° SE visible
26 Sep 6.7 04:34:29 10° ENE 04:35:04 10° E 04:35:39 10° E visible
26 Sep 6.7 19:15:57 10° W 19:17:17 11° W 19:18:38 10° WNW visible
27 Sep 6.1 18:36:07 10° SW 18:39:55 21° W 18:43:44 10° NW visible
28 Sep 6.2 04:57:46 10° NE 05:00:57 16° E 05:04:07 10° SE visible
